This demonstration page uses our WeatherBlox Daily Observations layout. Learn more.

Left ArrowRight Arrow

Hourly Observations for December 1, 2022

Temp ( °F °C ) Dew Point ( °F °C ) Humidity (%) Winds ( mph kmh ) Pressure ( in mb ) Visibility ( mi km ) Precip ( " mm )
12:53 am 00:53 Cloudy 50 10 41 5 71 71 S 30 48 29.67 1005 10 16 0.01 0.13
1:42 am 01:42 Cloudy with Light Rain 48 8.9 43 6.1 83 83 S 28 44 29.69 1005 5 8 0.01 0.13
1:53 am 01:53 Cloudy with Light Rain 48 8.9 43 6.1 83 83 S 23 37 29.68 1005 7 11 0.01 0.25
2:38 am 02:38 Cloudy with Rain 48 8.9 44 6.7 86 86 S 20 31 29.70 1006 6 10 0.07 1.78
2:53 am 02:53 Cloudy with Rain 48 8.9 44 6.7 86 86 SSW 16 26 29.70 1006 5 8 0.10 2.54
3:53 am 03:53 Cloudy with Rain 47 8.3 45 7.2 93 93 SW 8 13 29.70 1006 4 6 0.16 4.06
4:03 am 04:03 Cloudy with Rain 47 8.3 45 7.2 93 93 SW 7 11 29.71 1006 4 6 0.03 0.76
4:21 am 04:21 Cloudy with Light Rain 47 8.3 44 6.7 90 90 SSW 8 13 29.71 1006 5 8 0.06 1.52
4:31 am 04:31 Cloudy with Light Rain 47 8.3 44 6.7 90 90 S 8 13 29.71 1006 5 8 0.07 1.78
4:53 am 04:53 Cloudy with Rain 47 8.3 44 6.7 90 90 SSW 6 9 29.69 1006 4 6 0.12 3.05
5:53 am 05:53 Cloudy with Light Rain 46 7.8 44 6.7 93 93 SE 7 11 29.69 1005 5 8 0.11 2.79
6:53 am 06:53 Cloudy 46 7.8 44 6.7 93 93 WSW 7 11 29.70 1006 10 16 0.02 0.51
7:05 am 07:05 Cloudy 46 7.8 44 6.7 93 93 WNW 6 9 29.72 1007 10 16 0.00 0.00
7:14 am 07:14 Cloudy 46 7.8 43 6.1 89 89 W 8 13 29.73 1007 10 16 0.00 0.00
7:27 am 07:27 Cloudy 46 7.8 42 5.6 86 86 WSW 7 11 29.74 1007 10 16 0.00 0.00
7:37 am 07:37 Cloudy 46 7.8 42 5.6 86 86 WSW 3 6 29.73 1007 10 16 0.00 0.00
7:53 am 07:53 Cloudy 46 7.8 42 5.6 86 86 SSW 7 11 29.73 1007 10 16 0.00 0.00
8:00 am 08:00 Cloudy 46 7.8 42 5.6 86 86 SSW 7 11 29.74 1007 10 16 0.00 0.00
8:21 am 08:21 Cloudy 46 7.8 42 5.6 86 86 S 7 11 29.75 1008 10 16 0.00 0.00
8:28 am 08:28 Cloudy 46 7.8 43 6.1 89 89 S 6 9 29.76 1008 10 16 0.00 0.00
8:53 am 08:53 Partly Cloudy 46 7.8 43 6.1 89 89 SSE 5 7 29.75 1007 10 16 0.00 0.00
9:45 am 09:45 Mostly Sunny 47 8.3 44 6.7 90 90 SSE 8 13 29.79 1009 10 16 0.00 0.00
9:53 am 09:53 Mostly Sunny 47 8.3 43 6.1 86 86 S 9 15 29.78 1008 10 16 0.00 0.00
10:53 am 10:53 Sunny 50 10 38 3.3 63 63 WSW 6 9 29.80 1009 10 16 0.00 0.00
11:53 am 11:53 Mostly Cloudy 51 10.6 40 4.4 65 65 S 6 9 29.78 1009 10 16 0.00 0.00
12:53 pm 12:53 Mostly Sunny 53 11.7 27 -2.8 36 36 WSW 10 17 29.78 1008 10 16 0.00 0.00
1:53 pm 13:53 Partly Cloudy 54 12.2 29 -1.7 38 38 WNW 7 11 29.78 1008 9 14 0.00 0.00
2:53 pm 14:53 Partly Cloudy 54 12.2 26 -3.3 34 34 VRB 3 6 29.79 1009 10 16 0.00 0.00
3:53 pm 15:53 Sunny 51 10.6 27 -2.8 39 39 WNW 6 9 29.80 1009 10 16 0.00 0.00
5:53 pm 17:53 Clear 42 5.6 30 -1.1 62 62 WNW 3 6 29.86 1011 8 13 0.00 0.00
6:53 pm 18:53 Clear 42 5.6 29 -1.7 59 59 W 6 9 29.89 1012 10 16 0.00 0.00
7:53 pm 19:53 Clear 38 3.3 29 -1.7 70 70 W 3 6 29.93 1014 10 16 0.00 0.00
8:53 pm 20:53 Clear 40 4.4 29 -1.7 64 64 Calm 29.96 1015 10 16 0.00 0.00
9:53 pm 21:53 Clear 38 3.3 28 -2.2 67 67 Calm 29.99 1016 10 16 0.00 0.00
10:53 pm 22:53 Clear 38 3.3 28 -2.2 67 67 Calm 30.03 1017 10 16 0.00 0.00
11:53 pm 23:53 Clear 35 1.7 29 -1.7 78 78 NNE 5 7 30.05 1018 10 16 0.00 0.00

Powered by AerisWeather